• Join FlightAware (Why Join?)
  • Login
  • US Flag 
05:26AM EDT


 

Airport Tracker/Info


-or-


 

Live Flight TrackerFlight Track Log ✈ SWA554 ✈ 10-Apr-2013 ✈ KPHX - KMKE

Flight Track Log - Related Links

Times and Time Zones

All times are in EDT time to prevent confusion due to time zone crossing. See the SWA554 flight status page for this flight to view local times or setup timezone preferences in your user account.

Time Position Orientation Groundspeed Altitude Reporting Facility
EDT Latitude Longitude Course Direction KTS MPH feet Rate Location/Type
10:57AM 33.4333 -112.0500 268° West 170 196 2,500  Level Phoenix TRACON
10:58AM 33.4333 -112.1333 270° West 237 273 4,300 2,220 Climbing Phoenix TRACON
10:59AM 33.4500 -112.2000 287° West 272 313 7,000 3,060 Climbing Phoenix TRACON
11:00AM 33.5333 -112.1833 North 275 316 10,500 2,460 Climbing Phoenix TRACON
11:02AM 33.5528 -112.0819 77° East 326 375 12,500 2,580 Climbing Albuquerque Center
11:03AM 33.5756 -111.9439 79° East 355 409 16,400 3,000 Climbing Albuquerque Center
11:04AM 33.5972 -111.8200 78° East 386 444 18,800 2,640 Climbing Albuquerque Center
11:05AM 33.6183 -111.6925 79° East 394 453 21,900 2,580 Climbing Albuquerque Center
11:06AM 33.6403 -111.5642 78° East 397 457 24,200 2,040 Climbing Albuquerque Center
11:07AM 33.6617 -111.4306 79° East 410 472 26,200 2,040 Climbing Albuquerque Center
11:08AM 33.6897 -111.2639 79° East 427 491 28,500 1,980 Climbing Albuquerque Center
11:09AM 33.7372 -111.1342 66° East 428 493 30,400 2,220 Climbing Albuquerque Center
11:10AM 33.7811 -111.0083 67° East 414 476 33,100 1,920 Climbing Albuquerque Center
11:11AM 33.8250 -110.8864 67° East 404 465 34,400 960 Climbing Albuquerque Center
11:12AM 33.8678 -110.7592 68° East 407 468 35,200 780 Climbing Albuquerque Center
11:13AM 33.9236 -110.6022 67° East 421 484 36,100 780 Climbing Albuquerque Center
11:14AM 33.9717 -110.4667 67° East 434 499 36,900 420 Climbing Albuquerque Center
11:15AM 34.0200 -110.3256 68° East 444 511 37,000  Climbing Albuquerque Center
11:16AM 34.0689 -110.1872 67° East 449 517 37,000  Level Albuquerque Center
11:17AM 34.1194 -110.0411 67° East 441 507 37,000  Level Albuquerque Center
11:18AM 34.1636 -109.9114 68° East 439 505 37,000  Level Albuquerque Center
11:19AM 34.2167 -109.7589 67° East 440 506 37,000  Level Albuquerque Center
11:20AM 34.2611 -109.6256 68° East 444 511 37,000  Level Albuquerque Center
11:21AM 34.3147 -109.4708 67° East 447 514 37,000  Level Albuquerque Center
11:22AM 34.3592 -109.3367 68° East 448 516 37,000  Level Albuquerque Center
11:23AM 34.4239 -109.1911 62° Northeast 445 512 37,000  Level Albuquerque Center
11:24AM 34.4919 -109.0739 55° Northeast 442 509 37,000  Level Albuquerque Center
11:25AM 34.5697 -108.9350 56° Northeast 446 513 37,000  Level Albuquerque Center
11:26AM 34.6378 -108.8131 56° Northeast 451 519 37,000  Level Albuquerque Center
11:27AM 34.7156 -108.6719 56° Northeast 452 520 37,000  Level Albuquerque Center
11:28AM 34.7825 -108.5519 56° Northeast 449 517 37,000  Level Albuquerque Center
11:30AM 34.8497 -108.4308 56° Northeast 451 519 37,000  Level Albuquerque Center
11:31AM 34.9286 -108.2914 55° Northeast 449 517 37,000  Level Albuquerque Center
11:32AM 34.9947 -108.1703 56° Northeast 449 517 37,000  Level Albuquerque Center
11:33AM 35.0719 -108.0278 56° Northeast 451 519 37,000  Level Albuquerque Center
11:34AM 35.1394 -107.9047 56° Northeast 453 521 37,000  Level Albuquerque Center
11:35AM 35.2183 -107.7592 56° Northeast 458 527 37,000  Level Albuquerque Center
11:36AM 35.2861 -107.6356 56° Northeast 458 527 37,000  Level Albuquerque Center
11:37AM 35.3611 -107.4958 57° Northeast 460 529 37,000  Level Albuquerque Center
11:38AM 35.4322 -107.3653 56° Northeast 459 528 37,000  Level Albuquerque Center
11:39AM 35.5097 -107.2186 57° Northeast 459 528 37,000  Level Albuquerque Center
11:40AM 35.5725 -107.1011 57° Northeast 459 528 37,000  Level Albuquerque Center
11:41AM 35.6550 -106.9467 57° Northeast 460 529 37,000  Level Albuquerque Center
11:42AM 35.7203 -106.8233 57° Northeast 455 524 37,000  Level Albuquerque Center
11:43AM 35.7981 -106.6767 57° Northeast 457 526 37,000  Level Albuquerque Center
11:44AM 35.8633 -106.5536 57° Northeast 452 520 37,000  Level Albuquerque Center
11:45AM 35.9344 -106.4194 57° Northeast 455 524 37,000  Level Albuquerque Center
11:46AM 36.0017 -106.2864 58° Northeast 457 526 37,000  Level Albuquerque Center
11:47AM 36.0697 -106.1528 58° Northeast 460 529 37,000  Level Albuquerque Center
11:48AM 36.1386 -106.0192 57° Northeast 462 532 37,000  Level Albuquerque Center
11:49AM 36.2097 -105.8897 56° Northeast 457 526 37,000  Level Albuquerque Center
11:50AM 36.2886 -105.7247 59° Northeast 462 532 37,000  Level Albuquerque Center
11:51AM 36.3575 -105.5917 57° Northeast 461 531 37,000  Level Albuquerque Center
11:52AM 36.4319 -105.4456 58° Northeast 460 529 37,000  Level Albuquerque Center
11:53AM 36.4972 -105.3178 58° Northeast 459 528 37,000  Level Albuquerque Center
11:54AM 36.5694 -105.1731 58° Northeast 461 531 37,000  Level Albuquerque Center
11:55AM 36.6378 -105.0347 58° Northeast 463 533 37,000  Level Albuquerque Center
11:56AM 36.7033 -104.9053 58° Northeast 463 533 37,000  Level Albuquerque Center
11:57AM 36.7789 -104.7528 58° Northeast 464 534 37,000  Level Albuquerque Center
11:58AM 36.8453 -104.6228 57° Northeast 465 535 37,000  Level Albuquerque Center
11:59AM 36.9197 -104.4711 58° Northeast 460 529 37,000  Level Albuquerque Center
12:00PM 36.9408 -104.4283 58° Northeast 461 531 37,000  Level Denver Center
12:00PM 36.9828 -104.3403 59° Northeast 459 528 37,000  Level Albuquerque Center
12:01PM 37.0586 -104.1903 58° Northeast 458 527 37,000  Level Albuquerque Center
12:03PM 37.1206 -104.0606 59° Northeast 457 526 37,000  Level Albuquerque Center
12:03PM 37.1425 -104.0164 58° Northeast 461 531 37,000  Level Denver Center
12:04PM 37.2172 -103.8636 58° Northeast 464 534 37,000  Level Denver Center
12:05PM 37.2811 -103.7306 59° Northeast 467 537 37,000  Level Denver Center
12:06PM 37.3344 -103.6211 58° Northeast 469 540 37,000  Level Albuquerque Center
12:07PM 37.3975 -103.4869 59° Northeast 469 540 37,000  Level Albuquerque Center
12:07PM 37.4189 -103.4411 60° Northeast 467 537 37,000  Level Denver Center
12:08PM 37.4942 -103.2850 59° Northeast 468 539 37,000  Level Denver Center
12:09PM 37.5581 -103.1503 59° Northeast 469 540 37,000  Level Denver Center
12:10PM 37.6325 -102.9925 59° Northeast 469 540 37,000  Level Denver Center
12:11PM 37.6969 -102.8561 59° Northeast 473 544 37,000  Level Denver Center
12:12PM 37.7711 -102.6986 59° Northeast 467 537 37,000 180 Level Denver Center
12:13PM 37.8339 -102.5619 60° Northeast 468 539 37,400 600 Climbing Denver Center
12:14PM 37.8989 -102.4225 59° Northeast 473 544 38,300 720 Climbing Denver Center
12:15PM 37.9722 -102.2611 60° Northeast 472 543 39,000 300 Climbing Denver Center
12:16PM 38.0378 -102.1197 59° Northeast 482 555 39,000  Level Denver Center
12:17PM 38.1119 -101.9575 60° Northeast 477 549 39,000  Level Denver Center
12:18PM 38.1758 -101.8172 60° Northeast 478 550 39,000  Level Denver Center
12:19PM 38.2506 -101.6528 60° Northeast 478 550 39,000  Level Denver Center
12:20PM 38.3144 -101.5108 60° Northeast 480 552 39,000  Level Denver Center
12:21PM 38.3889 -101.3447 60° Northeast 483 556 39,000  Level Denver Center
12:22PM 38.4519 -101.2019 61° Northeast 481 554 39,000  Level Denver Center
12:24PM 38.5153 -101.0619 60° Northeast 475 547 39,000  Level Denver Center
12:25PM 38.5878 -100.8986 60° Northeast 472 543 39,000  Level Denver Center
12:26PM 38.6500 -100.7581 60° Northeast 472 543 39,000  Level Denver Center
12:27PM 38.7231 -100.5931 60° Northeast 476 548 39,000  Level Denver Center
12:28PM 38.7839 -100.4522 61° Northeast 472 543 39,000  Level Denver Center
12:29PM 38.8556 -100.2861 61° Northeast 475 547 39,000  Level Denver Center
12:30PM 38.9186 -100.1439 60° Northeast 476 548 39,000  Level Denver Center
12:31PM 38.9900 -99.9733 62° Northeast 483 556 39,000  Level Denver Center
12:32PM 39.0536 -99.8283 61° Northeast 485 558 39,000  Level Denver Center
12:33PM 39.1164 -99.6794 61° Northeast 492 566 39,000  Level Denver Center
12:34PM 39.1903 -99.5072 61° Northeast 491 565 39,000  Level Denver Center
12:35PM 39.2575 -99.3481 61° Northeast 493 567 39,000  Level Denver Center
12:36PM 39.3192 -99.1978 62° Northeast 494 568 39,000  Level Denver Center
12:37PM 39.4019 -98.9989 62° Northeast 495 570 39,000  Level Denver Center
12:38PM 39.4817 -98.8064 62° Northeast 491 565 39,000  Level Denver Center
12:39PM 39.5469 -98.6494 62° Northeast 494 568 39,000  Level Denver Center
12:40PM 39.6114 -98.4906 62° Northeast 498 573 39,000  Level Denver Center
12:41PM 39.6758 -98.3339 62° Northeast 496 571 39,000  Level Minneapolis Center
12:42PM 39.7400 -98.1739 62° Northeast 498 573 39,000  Level Minneapolis Center
12:43PM 39.8039 -98.0139 62° Northeast 499 574 39,000  Level Minneapolis Center
12:44PM 39.8678 -97.8542 62° Northeast 500 575 39,000  Level Minneapolis Center
12:45PM 39.9314 -97.6967 62° Northeast 495 570 39,000  Level Minneapolis Center
12:47PM 40.0072 -97.5075 62° Northeast 492 566 39,000  Level Minneapolis Center
12:48PM 40.0689 -97.3475 63° Northeast 492 566 39,000  Level Minneapolis Center
12:49PM 40.1308 -97.1917 62° Northeast 496 571 39,000  Level Minneapolis Center
12:50PM 40.1944 -97.0311 63° Northeast 496 571 39,000  Level Minneapolis Center
12:51PM 40.2569 -96.8700 63° Northeast 498 573 39,000  Level Minneapolis Center
12:52PM 40.3189 -96.7086 63° Northeast 498 573 39,000  Level Minneapolis Center
12:53PM 40.3922 -96.5164 63° Northeast 495 570 39,000  Level Minneapolis Center
12:54PM 40.4525 -96.3567 64° Northeast 492 566 39,000  Level Minneapolis Center
12:55PM 40.5131 -96.1978 63° Northeast 490 564 39,000  Level Minneapolis Center
12:56PM 40.5853 -96.0078 63° Northeast 487 560 39,000  Level Minneapolis Center
12:57PM 40.6442 -95.8508 64° Northeast 483 556 39,000  Level Minneapolis Center
12:58PM 40.7022 -95.6939 64° Northeast 482 555 39,000  Level Minneapolis Center
12:59PM 40.7711 -95.5092 64° Northeast 475 547 39,000  Level Minneapolis Center
01:00PM 40.8283 -95.3539 64° Northeast 474 545 39,000  Level Minneapolis Center
01:01PM 40.8853 -95.1975 64° Northeast 474 545 39,000  Level Minneapolis Center
01:02PM 40.9439 -95.0394 64° Northeast 476 548 39,000  Level Minneapolis Center
01:03PM 41.0017 -94.8800 64° Northeast 479 551 39,000  Level Minneapolis Center
01:04PM 41.0592 -94.7208 64° Northeast 481 554 39,000  Level Minneapolis Center
01:05PM 41.1261 -94.5308 65° Northeast 482 555 39,000  Level Minneapolis Center
01:06PM 41.1839 -94.3697 64° Northeast 480 552 39,000  Level Minneapolis Center
01:07PM 41.2386 -94.2131 65° Northeast 479 551 39,000  Level Minneapolis Center
01:08PM 41.2956 -94.0544 64° Northeast 479 551 39,000  Level Minneapolis Center
01:09PM 41.3511 -93.8944 65° Northeast 479 551 39,000  Level Minneapolis Center
01:10PM 41.4078 -93.7336 65° Northeast 481 554 39,000  Level Minneapolis Center
01:11PM 41.4747 -93.5406 65° Northeast 482 555 39,000  Level Minneapolis Center
01:12PM 41.5317 -93.3756 65° Northeast 487 560 39,000  Level Minneapolis Center
01:13PM 41.5881 -93.2111 65° Northeast 489 563 39,000  Level Minneapolis Center
01:15PM 41.6436 -93.0450 66° East 491 565 39,000  Level Minneapolis Center
01:16PM 41.7006 -92.8803 65° Northeast 491 565 39,000  Level Minneapolis Center
01:17PM 41.7581 -92.7089 66° East 496 571 39,000  Level Minneapolis Center
01:18PM 41.8253 -92.5069 66° East 498 573 39,000  Level Minneapolis Center
01:19PM 41.8803 -92.3356 67° East 500 575 39,000  Level Chicago Center
01:20PM 41.9367 -92.1675 66° East 500 575 39,000  Level Chicago Center
01:21PM 41.9922 -91.9983 66° East 500 575 39,000 -360 Level Chicago Center
01:22PM 42.0472 -91.8289 66° East 500 575 38,300 -840 Descending Chicago Center
01:23PM 42.1017 -91.6619 66° East 496 571 37,400 -1,080 Descending Chicago Center
01:24PM 42.1667 -91.4547 67° East 506 582 36,200 -1,020 Descending Chicago Center
01:25PM 42.2225 -91.2825 66° East 510 587 35,300 -960 Descending Chicago Center
01:26PM 42.2769 -91.1078 67° East 511 588 34,300 -1,020 Descending Chicago Center
01:27PM 42.3308 -90.9319 67° East 513 590 33,300 -1,020 Descending Chicago Center
01:28PM 42.3853 -90.7589 67° East 507 583 32,300 -1,080 Descending Chicago Center
01:29PM 42.4178 -90.5475 78° East 489 563 31,100 -660 Descending Chicago Center
01:30PM 42.4353 -90.3697 82° East 482 555 31,000 -720 Descending Chicago Center
01:31PM 42.4533 -90.1944 82° East 476 548 29,700 -1,500 Descending Chicago Center
01:32PM 42.4706 -90.0217 82° East 470 541 28,000 -1,320 Descending Chicago Center
01:33PM 42.4867 -89.8567 82° East 447 514 27,000 -1,500 Descending Chicago Center
01:34PM 42.5047 -89.6661 83° East 438 504 25,000 -1,920 Descending Chicago Center
01:35PM 42.5208 -89.5064 82° East 428 493 23,100 -1,860 Descending Chicago Center
01:36PM 42.5347 -89.3511 83° East 419 482 21,300 -1,800 Descending Chicago Center
01:37PM 42.5489 -89.1964 83° East 414 476 19,500 -1,740 Descending Chicago Center
01:38PM 42.5672 -89.0464 81° East 404 465 17,800 -1,740 Descending Chicago Center
01:39PM 42.5950 -88.9042 75° East 394 453 16,000 -2,040 Descending Chicago Center
01:40PM 42.6267 -88.7358 76° East 393 452 13,700 -2,040 Descending Chicago Center
01:41PM 42.6525 -88.5942 76° East 388 447 11,900 -1,680 Descending Chicago Center
01:42PM 42.6761 -88.4614 76° East 368 423 10,300 -1,200 Descending Chicago Center
01:43PM 42.6981 -88.3392 76° East 341 392 9,500 -1,200 Descending Chicago Center
01:44PM 42.6983 -88.2231 90° East 312 359 7,900 -1,380 Descending Chicago Center
01:45PM 42.6931 -88.1078 94° East 307 353 6,700 -1,260 Descending Chicago Center
01:46PM 42.6997 -87.9800 86° East 291 335 5,400 -1,080 Descending Chicago Center
01:47PM 42.7439 -87.9289 40° Northeast 240 276 4,600 -1,140 Descending Chicago Center
01:48PM 42.8014 -87.9175 North 218 251 3,100 -1,080 Descending Chicago Center
01:49PM 42.8458 -87.9097 North 188 216 2,400 -720 Descending Chicago Center
01:50PM 42.8808 -87.9044 North 150 173 1,700 -780 Descending Chicago Center
01:51PM 42.9000 -87.9000 10° North 119 137 1,300 -840 Descending KMKE
01:54PM 42.9333 -87.8833 10° North  Level FlightAware Approximate